Skip Navigation Links
NOAA logo - Click to go to the NOAA homepage
NOAA's National Weather Service
Alaska Aviation Weather Unit
  NWS logo - Click to go to the NWS homepage
Left Navbar Graphic     21 AKDT = 05 GMT

   
NOAA is celebrating 200 years of science, service, and stewardship. Visit the NOAA 200th celebration Web site to learn more.
USA.gov is the U.S. Government's official Web portal to all Federal, state and local government Web resources and services.
Facebook
NWS on Facebook

Important Change Regarding the AAWU Web Presence

 

Over the last several months, the AAWU has been working to navigate its webpages to a nationally supported server. Security, as well as other needs, have necessitated the change.  In the process, we have made an effort to enhance the functionality of our website, as well as some of our products. As of June 27, 2017, aawu.arh.noaa.gov will be discontinued. The new AAWU web address is weather.gov/aawu. It is now live and will run in-parallel with the old site until it is discontinued. Please send any feedback or questions regarding the new webpages to nws.ar.aawu.webauthors@noaa.gov.  Thank you for your patience during this time of transition.
AAWU Home :: Display TAF Add Bookmark
METAR PAKP 252356Z AUTO 05011KT 10SM CLR 16/01 A2988 RMK AO2 SLP141
     T01560011 10156 20100 56009=

METAR PAKP 260056Z AUTO 04012KT 10SM FEW065 OVC110 14/02 A2988 RMK
 AO2 SLP142 T01440022=

METAR PAKP 260156Z AUTO 03010G16KT 10SM OVC110 14/02 A2988 RMK AO2
     SLP142 T01390022=

METAR PAKP 260256Z AUTO 04012KT 10SM OVC100 15/03 A2987 RMK AO2 SLP138
     T01500028 58002=

METAR PAKP 260356Z AUTO 02012KT 10SM SCT110 14/03 A2987 RMK AO2 SLP136
     T01440028=

METAR PAKP 260456Z AUTO 04011KT 10SM BKN050 14/03 A2987 RMK AO2 SLP136
     T01440028=


NOAA's National Weather Service
Alaska Aviation Weather Unit
6930 Sand Lake Road
Anchorage, AK 99502-1845
Disclaimer
Credits
Glossary
Privacy Policy
About Us
Career Opportunities
Contact AAWU Internet Services Site last modified: April, 17th 2012